Preview of NWS' New Version of Forecast
This preview is not operational and should not be used for support decisions.

Regional Weather Roundup (RWR)

Issued by National Weather Service (NWS)

                            
000
ASUS46 KSEW 201910
RWRWA 

WASHINGTON REGIONAL WEATHER ROUNDUP
NATIONAL WEATHER SERVICE SEATTLE WA
1200 PM PDT SAT JUL 20 2019

NOTE:"FAIR" INDICATES FEW OR NO CLOUDS BELOW 12,000 FEET WITH NO 
SIGNIFICANT WEATHER AND/OR OBSTRUCTIONS TO VISIBILITY.

WAZ507-509-555>559-202000-
SEATTLE, TACOMA, EVERETT, AND VICINITY
  
CITY           SKY/WX    TMP DP  RH WIND       PRES   REMARKS
EVERETT        SUNNY     67  48  50 N8        30.13S                  
BOEING FIELD   SUNNY     71  48  43 VRB7      30.10F                  
RENTON         SUNNY     71  51  49 NW10      30.10F VSB 3/4          
SEATAC AIRPORT SUNNY     71  51  49 N9        30.11F                  
JBLM-MCCHORD   SUNNY     71  55  56 NE9G18    30.11F                  
PUYALLUP       FAIR      72  50  46 VRB6      30.11S                  
BREMERTON      SUNNY     69  50  50 NE8       30.12S                  
JBLM-FT LEWIS  MOSUNNY   71  53  52 N10       30.10F                  
TACOMA NARROWS SUNNY     66  47  50 N10       30.12F                  
$$
 
WAZ001-503-506-510-514-515-202000-
NORTH INTERIOR
  
CITY           SKY/WX    TMP DP  RH WIND       PRES   REMARKS
BELLINGHAM     SUNNY     70  50  49 VRB3      30.11F                  
FRIDAY HARBOR  SUNNY     70  51  51 E5        30.13F                  
EASTSOUND      SUNNY     66  54  63 N5        30.12F                  
PORT ANGELES   SUNNY     67  52  58 N6        30.14F                  
EDIZ HOOK      FAIR      63  52  67 E3        30.14S                  
PORT TOWNSEND  FAIR      68  50  52 NW7G13    30.12S                  
NAS WHIDBEY    MOSUNNY   64  51  62 W8        30.16F                  
ARLINGTON      NOT AVBL                                               
BURLINGTON     SUNNY     72  52  49 NW9       30.12F                  
$$
 
WAZ020-022-039-040-504-511-512-202000-
SOUTHWEST INTERIOR
  
CITY           SKY/WX    TMP DP  RH WIND       PRES   REMARKS
SHELTON        SUNNY     73  48  41 E8        30.08F                  
OLYMPIA        SUNNY     71  46  40 NE13      30.11F                  
CHEHALIS       FAIR      73  52  46 VRB5G18   30.09F                  
KELSO          SUNNY     73  52  47 VRB7      30.06F                  
VANCOUVER      SUNNY     72  49  44 NW9       30.04F                  
SCAPPOOSE, OR  SUNNY     74  50  42 VRB7      30.03F                  
PORTLAND, OR   SUNNY     72  49  44 NW12      30.04F                  
$$
 
WAZ021-516-517-202000-
WASHINGTON COAST
  
CITY           SKY/WX    TMP DP  RH WIND       PRES   REMARKS
FORKS          SUNNY     67  56  67 W9        30.11S                  
HOQUIAM        SUNNY     67  56  67 W12       30.11F                  
ASTORIA, OR    SUNNY     71  53  52 NW10      30.07S                  
$$
 
WAZ019-023-024-040-567>569-202000-
CASCADE MOUNTAINS AND COLUMBIA GORGE
  
CITY           SKY/WX    TMP DP  RH WIND       PRES   REMARKS
STAMPEDE PASS  SUNNY     68  41  37 VRB6      30.16S                  
TROUTDALE, OR  SUNNY     72  51  47 W3        30.03F                  
HOOD RIVER, OR CLEAR     77  43  29 NE7       30.05F                  
THE DALLES, OR SUNNY     77  46  33 W5        30.04F                  
$$

WAZ026-027-041>044-520-521-202000-
EAST SLOPES
  
CITY           SKY/WX    TMP DP  RH WIND       PRES   REMARKS
OMAK           SUNNY     77  38  24 VRB5      30.08F                  
WENATCHEE      SUNNY     73  40  30 SW9       30.07F                  
ELLENSBURG     SUNNY     76  43  30 VRB3      30.09F                  
YAKIMA         SUNNY     77  42  28 E3        30.08F                  
SUNNYSIDE ARPT CLEAR     76  46  35 CALM      30.07                   
YAKIMA TC      FAIR      76  38  25 W7        30.07S                  
$$

WAZ028-034-035-202000-
COLUMBIA BASIN
  
CITY           SKY/WX    TMP DP  RH WIND       PRES   REMARKS
EPHRATA        SUNNY     78  35  21 SW6       30.07S                  
MOSES LAKE     SUNNY     80  40  23 SW6       30.08S                  
PASCO          SUNNY     78  45  30 VRB3      30.07F                  
RICHLAND ARPT  CLEAR     79  44  29 NW5       30.06                   
HERMISTON, OR    N/A     79  43  27 MISG      30.05F                  
$$

WAZ036>038-202000-
NORTHEAST WASHINGTON
  
CITY           SKY/WX    TMP DP  RH WIND       PRES   REMARKS
SPOKANE GEIGER MOSUNNY   71  37  28 VRB3      30.11S                  
SPOKANE FELTS  SUNNY     74  39  28 S6        30.10F                  
FAIRCHILD AFB  SUNNY     71  37  28 CALM      30.11S                  
COEURDALENE,ID SUNNY     71  41  33 VRB5      30.11F                  
DEER PARK      SUNNY     72  39  30 VRB3      30.10F                  
$$

WAZ029>033-202000-
SOUTHEAST WASHINGTON
  
CITY           SKY/WX    TMP DP  RH WIND       PRES   REMARKS
PULLMAN        SUNNY     72  36  26 CALM      30.12S                  
LEWISTON, ID   SUNNY     78  38  23 VRB3      30.07F                  
WALLA WALLA    SUNNY     75  40  28 SW6       30.06F                  
PENDLETON, OR  SUNNY     79  35  20 VRB7      30.06F                  
$$